#timestamp,LO_Frequency,Hit 
1502074815.4,286047031.5,N
1502074835.3,286047033.6,N
1502074855.1,286047034.6,N
1502074875.8,286047034.9,N
1502074895.7,286047035.1,N
1502074915.5,286047034.0,N
1502074935.3,286047035.8,N
1502074955.2,286047035.8,N
1502074975.9,286047038.0,Y
1502074995.7,286047015.5,N
1502075015.6,286047013.0,N
1502075035.4,286047015.2,N
1502075055.2,286047012.5,N
1502075075.1,286047013.8,N
1502075076.0,286047013.8,N
1502075095.8,286047015.0,N
1502075115.6,286047012.8,N
1502075135.4,286047013.6,N
1502075155.3,286047017.1,N
1502075175.1,286047016.0,N
1502075195.8,286047014.7,N
1502075215.7,286047017.0,N
1502075235.5,286047017.2,N
1502075255.3,286047014.4,N
1502075275.2,286047013.7,N
1502075295.9,286047015.3,N
1502075315.7,286047016.5,N
1502075335.6,286047013.5,N
1502075355.4,286047010.9,N
1502075375.2,286047011.7,N
1502075395.0,286047013.9,N
1502075396.0,286047013.9,N
1502075415.8,286047012.9,N
1502075435.6,286047011.1,N
1502075455.4,286047013.1,N
1502075475.3,286047014.9,N
1502075495.1,286047014.7,N
1502075515.8,286047012.6,N
1502075535.7,286047014.7,N
1502075555.5,286047014.0,N
1502075575.3,286047016.8,N
1502075595.2,286047016.4,N
1502075615.9,286047017.7,N
1502075635.7,286047015.9,N
1502075655.6,286047016.5,N
1502075675.4,286047018.2,N
1502075695.2,286047017.9,N
1502075715.0,286047014.3,N
1502075716.0,286047014.3,N
1502075735.8,286047016.9,N
1502075755.6,286047017.7,N
1502075775.4,286047015.4,N
1502075795.3,286047016.4,N
1502075815.1,286047018.6,N
1502075835.8,286047019.2,N
1502075855.7,286047023.6,N
1502075875.5,286047019.2,N
1502075895.3,286047019.6,N
1502075915.2,286047023.0,N
1502075935.9,286047024.2,N
1502075955.7,286047022.4,N
1502075975.6,286047024.4,N
1502075995.4,286047025.0,N
1502076015.2,286047024.1,N
1502076035.0,286047026.7,N
1502076035.9,286047026.7,N
1502076055.8,286047026.4,N
1502076075.6,286047025.5,N
1502076095.4,286047026.0,N
1502076115.3,286047026.8,N
1502076135.1,286047026.3,N
1502076155.8,286047027.6,N
1502076175.7,286047025.7,N
1502076195.5,286047026.1,N
1502076215.3,286047026.0,N
1502076235.2,286047027.8,N
1502076255.9,286047027.9,N
1502076275.7,286047023.9,N
1502076295.6,286047022.1,N
1502076315.4,286047024.1,N
1502076335.2,286047025.8,N
1502076355.0,286047027.9,N
1502076356.0,286047027.9,N
1502076375.8,286047028.5,N
1502076395.6,286047026.1,N
1502076415.4,286047027.3,N
1502076435.3,286047026.5,N
1502076455.1,286047029.4,N
1502076475.8,286047025.6,N
1502076495.7,286047025.3,N
1502076515.5,286047025.4,N
1502076535.3,286047028.3,N
1502076555.2,286047027.6,N
1502076575.9,286047028.3,N
1502076595.7,286047026.7,N
1502076615.6,286047027.4,N
1502076635.4,286047027.4,N
1502076655.2,286047027.9,N
1502076675.1,286047027.7,N
1502076676.0,286047027.7,N
1502076695.8,286047028.5,N
1502076715.6,286047028.5,N
1502076735.4,286047028.9,N
1502076755.3,286047029.7,N
1502076775.1,286047027.1,N
1502076795.8,286047026.2,N
1502076815.7,286047027.7,N
1502076835.5,286047028.8,N
1502076855.3,286047031.0,N
1502076875.2,286047024.2,N
1502076895.9,286047028.2,N
1502076915.7,286047027.6,N
1502076935.6,286047025.8,N
1502076955.4,286047027.3,N
1502076975.2,286047028.0,N
1502076995.0,286047029.2,N
1502076996.0,286047029.2,N
1502077015.8,286047028.2,N
1502077035.6,286047027.2,N
1502077055.4,286047029.5,N
1502077075.3,286047026.9,N
1502077095.1,286047031.2,N
1502077115.8,286047030.2,N
1502077135.7,286047030.1,N
1502077155.5,286047028.6,N
1502077175.3,286047031.6,N
1502077195.2,286047030.8,N
1502077215.9,286047028.6,N
1502077235.7,286047029.7,N
1502077255.6,286047030.7,N
1502077275.4,286047031.3,N
1502077295.2,286047031.7,N
1502077315.0,286047033.4,N
1502077316.0,286047033.4,N
1502077335.8,286047030.6,N
1502077355.6,286047028.8,N
1502077375.4,286047029.9,N
1502077395.3,286047029.6,N
1502077415.1,286047029.1,N
1502077435.8,286047029.0,N
1502077455.7,286047033.0,N
1502077475.5,286047031.4,N
1502077495.3,286047034.4,N
1502077515.2,286047034.2,N
1502077535.9,286047037.5,Y
1502077555.7,286047016.4,N
1502077575.6,286047015.9,N
1502077595.4,286047018.5,N
1502077615.2,286047018.3,N
1502077635.1,286047016.9,N
1502077636.0,286047016.9,N
1502077655.8,286047016.4,N
1502077675.6,286047012.5,N
1502077695.5,286047013.9,N
1502077715.3,286047011.6,N
1502077735.1,286047012.7,N
1502077755.8,286047012.5,N
1502077775.7,286047015.2,N
1502077795.5,286047012.9,N
1502077815.3,286047015.1,N
1502077835.2,286047016.6,N
1502077855.9,286047017.9,N
1502077875.7,286047018.8,N
1502077895.6,286047019.8,N
1502077915.4,286047018.3,N
1502077935.2,286047017.7,N
1502077955.1,286047018.2,N
1502077956.0,286047018.2,N
1502077975.8,286047018.6,N
1502077995.6,286047019.0,N
1502078015.5,286047019.4,N
1502078035.3,286047023.6,N
1502078055.1,286047020.0,N
1502078075.8,286047017.7,N
1502078095.7,286047019.8,N
1502078115.5,286047017.6,N
1502078135.3,286047019.0,N
1502078155.2,286047018.2,N
1502078175.9,286047018.8,N
1502078195.7,286047020.0,N
1502078215.6,286047019.6,N
1502078235.4,286047020.6,N
1502078255.2,286047023.1,N
1502078275.1,286047020.5,N
1502078276.0,286047020.5,N
1502078295.8,286047020.3,N
1502078315.6,286047018.9,N
1502078335.5,286047021.4,N
1502078355.3,286047022.7,N
1502078375.1,286047023.1,N
1502078395.9,286047024.4,N
